RANA Weather Reports


time (UTC)temp
C
wind
direction
speed
KPH
gust
KPH
rain 1hr
cm
rain 24hr
cm
rain mn
cm
humidity
%
barometer
mb
20260507090010 11 236 17.7 20.9 0.00 0.00 0.00 90
20260507085510 11 244 20.9 25.7 0.00 0.00 0.00 90
20260507085010 11 216 25.7 29.0 0.00 0.00 0.00 90
20260507084510 11 200 17.7 25.7 0.00 0.00 0.00 91
20260507084011 11 183 17.7 20.9 0.00 0.00 0.00 90
20260507083511 11 174 17.7 20.9 0.00 0.00 0.00 91
20260507083010 11 208 20.9 29.0 0.00 0.00 0.00 91
20260507082511 11 224 20.9 20.9 0.00 0.00 0.00 91
20260507082012 11 231 20.9 29.0 0.00 0.00 0.00 92
20260507081511 10 258 25.7 32.2 0.00 0.00 0.00 92
20260507081011 10 259 25.7 29.0 0.00 0.00 0.00 92
20260507080509 10 245 29.0 32.2 0.00 0.00 0.00 93
20260507080011 8 241 25.7 29.0 0.00 0.00 0.00 93
20260507075510 8 233 25.7 29.0 0.00 0.00 0.00 92
20260507075010 8 232 25.7 29.0 0.00 0.00 0.00 92
20260507074510 8 236 29.0 29.0 0.00 0.00 0.00 92
20260507074011 8 234 25.7 29.0 0.00 0.00 0.00 93
20260507073510 8 236 20.9 20.9 0.00 0.00 0.00 92
20260507073010 10 233 29.0 29.0 0.00 0.00 0.00 92
20260507072510 10 239 25.7 32.2 0.00 0.00 0.00 93
20260507072013 8 237 25.7 29.0 0.00 0.00 0.00 93
20260507071503 8 218 20.9 25.7 0.00 0.00 0.00 93
20260507071009 8 205 29.0 29.0 0.00 0.00 0.00 93
20260507070517 10 215 20.9 25.7 0.00 0.00 0.00 93
20260507070012 8 224 29.0 29.0 0.00 0.00 0.00 93
20260507065511 8 231 29.0 32.2 0.00 0.00 0.00 93
20260507065011 8 242 29.0 32.2 0.00 0.00 0.00 93
20260507064518 8 249 32.2 35.4 0.00 0.00 0.00 93
20260507064010 8 241 29.0 32.2 0.00 0.00 0.00 93
20260507063515 8 239 29.0 32.2 0.00 0.00 0.00 93
20260507063010 8 239 32.2 35.4 0.00 0.00 0.00 93
20260507062510 10 245 32.2 40.2 0.00 0.00 0.00 93
20260507062012 10 233 20.9 25.7 0.00 0.00 0.00 93
20260507061518 10 229 20.9 29.0 0.00 0.00 0.00 93
20260507061011 10 231 20.9 25.7 0.00 0.00 0.00 93
20260507060510 10 232 20.9 25.7 0.00 0.00 0.00 93
20260507060011 10 229 20.9 25.7 0.00 0.00 0.00 93
20260507055515 10 237 20.9 25.7 0.00 0.00 0.00 93
20260507055011 10 244 20.9 25.7 0.00 0.00 0.00 93
20260507054510 8 245 25.7 25.7 0.00 0.00 0.00 93
20260507054010 8 245 20.9 25.7 0.00 0.00 0.00 93
20260507053511 8 248 17.7 20.9 0.00 0.00 0.00 93
20260507053010 8 250 17.7 17.7 0.00 0.00 0.00 92
20260507052511 8 244 17.7 20.9 0.00 0.00 0.00 92
20260507052012 8 240 17.7 17.7 0.00 0.00 0.00 92
20260507051511 8 253 14.5 17.7 0.00 0.00 0.00 92
20260507051010 8 249 17.7 20.9 0.00 0.00 0.00 92
20260507050510 8 244 17.7 20.9 0.00 0.00 0.00 92
20260507050011 8 252 14.5 17.7 0.00 0.00 0.00 92
20260507045510 8 235 17.7 20.9 0.00 0.00 0.00 92
20260507045011 8 222 20.9 25.7 0.00 0.00 0.00 92
20260507044518 10 226 20.9 25.7 0.00 0.00 0.00 92
20260507044010 8 219 29.0 29.0 0.00 0.00 0.00 92
20260507043511 8 219 25.7 29.0 0.00 0.00 0.00 92
20260507043010 8 212 29.0 29.0 0.00 0.00 0.00 92
20260507042510 8 206 29.0 29.0 0.00 0.00 0.00 91
20260507042010 8 201 25.7 32.2 0.00 0.00 0.00 92
20260507041516 8 199 20.9 29.0 0.00 0.00 0.00 91
20260507041010 8 200 17.7 25.7 0.00 0.00 0.00 91
20260507040511 8 196 17.7 20.9 0.00 0.00 0.00 91
20260507040011 8 206 20.9 25.7 0.00 0.00 0.00 91
20260507035510 8 203 20.9 25.7 0.00 0.00 0.00 91
20260507035011 8 202 25.7 29.0 0.00 0.00 0.00 91
20260507034510 8 201 25.7 29.0 0.00 0.00 0.00 90
20260507034010 8 197 25.7 25.7 0.00 0.00 0.00 90
20260507033511 8 192 17.7 25.7 0.00 0.00 0.00 90
20260507033010 8 192 20.9 25.7 0.00 0.00 0.00 90
20260507032510 10 204 29.0 32.2 0.00 0.00 0.00 90
20260507032013 10 197 25.7 32.2 0.00 0.00 0.00 90
20260507031510 10 207 29.0 32.2 0.00 0.00 0.00 91
20260507031008 10 216 20.9 25.7 0.00 0.00 0.00 91
20260507030510 10 214 20.9 25.7 0.00 0.00 0.00 91
20260507030010 8 210 25.7 25.7 0.00 0.00 0.00 90
20260507025510 8 204 25.7 29.0 0.00 0.00 0.00 90
20260507025010 8 212 20.9 25.7 0.00 0.00 0.00 91
20260507024511 10 216 20.9 25.7 0.00 0.00 0.00 90
20260507024010 10 229 25.7 25.7 0.00 0.00 0.00 90
20260507023510 10 233 25.7 25.7 0.00 0.00 0.00 90
20260507023011 10 238 25.7 25.7 0.00 0.00 0.00 91
20260507022510 10 242 25.7 25.7 0.00 0.00 0.00 91
20260507022011 10 239 25.7 29.0 0.00 0.00 0.00 91
20260507021511 10 227 25.7 25.7 0.00 0.00 0.00 91
20260507021010 10 227 20.9 25.7 0.00 0.00 0.00 91
20260507020518 10 220 25.7 25.7 0.00 0.00 0.00 91
20260507020010 10 226 20.9 25.7 0.00 0.00 0.00 91
20260507015510 10 230 20.9 25.7 0.00 0.00 0.00 91
20260507015010 10 220 20.9 20.9 0.00 0.00 0.00 91
20260507014510 10 223 20.9 25.7 0.00 0.00 0.00 91
20260507014011 10 216 20.9 20.9 0.00 0.00 0.00 91
20260507013510 10 226 20.9 25.7 0.00 0.00 0.00 90
20260507013012 10 232 20.9 25.7 0.00 0.00 0.00 90
20260507012511 10 225 25.7 29.0 0.00 0.00 0.00 90
20260507012004 10 228 25.7 29.0 0.00 0.00 0.00 90
20260507011510 10 227 20.9 25.7 0.00 0.00 0.00 90
20260507011011 10 231 20.9 20.9 0.00 0.00 0.00 90
20260507010510 10 230 20.9 20.9 0.00 0.00 0.00 89
20260507010011 10 223 17.7 20.9 0.00 0.00 0.00 90
20260507005509 10 228 20.9 25.7 0.00 0.00 0.00 90
20260507005010 10 236 25.7 25.7 0.00 0.00 0.00 90
20260507004010 10 218 20.9 25.7 0.00 0.00 0.00 89
20260507003510 10 210 25.7 29.0 0.00 0.00 0.00 88
20260507003010 10 230 20.9 25.7 0.00 0.00 0.00 88
20260507002511 11 264 25.7 25.7 0.00 0.00 0.00 89
20260507002012 11 259 20.9 20.9 0.00 0.00 0.00 89
20260507001511 11 256 20.9 20.9 0.00 0.00 0.00 89
20260507001010 10 265 20.9 20.9 0.00 0.00 0.00 89
20260507000511 10 254 17.7 20.9 0.00 0.00 0.00 89
20260507000011 10 255 20.9 20.9 0.00 0.00 0.00 89
20260506235511 10 248 20.9 25.7 0.00 0.00 0.00 89
20260506235010 10 231 17.7 20.9 0.00 0.00 0.00 88
20260506234510 10 213 17.7 17.7 0.00 0.00 0.00 88
20260506234011 10 240 17.7 17.7 0.00 0.00 0.00 88
20260506233510 10 242 20.9 20.9 0.00 0.00 0.00 88
20260506233010 10 237 17.7 20.9 0.00 0.00 0.00 88
20260506232514 10 226 17.7 20.9 0.00 0.00 0.00 88
20260506232012 10 207 14.5 14.5 0.00 0.00 0.00 88
20260506231510 10 209 17.7 20.9 0.00 0.00 0.00 88
20260506231010 10 206 17.7 20.9 0.00 0.00 0.00 87
20260506230511 10 205 17.7 25.7 0.00 0.00 0.00 88
20260506230010 10 218 17.7 20.9 0.00 0.00 0.00 88
20260506225510 10 216 17.7 25.7 0.00 0.00 0.00 88
20260506225010 10 234 17.7 20.9 0.00 0.00 0.00 87
20260506224510 10 254 20.9 20.9 0.00 0.00 0.00 87
20260506224011 10 256 17.7 17.7 0.00 0.00 0.00 86
20260506223511 10 262 25.7 25.7 0.00 0.00 0.00 86
20260506223010 10 231 17.7 17.7 0.00 0.00 0.00 85
20260506222513 10 230 17.7 17.7 0.00 0.00 0.00 85
20260506222016 11 224 17.7 20.9 0.00 0.00 0.00 85
20260506221510 11 207 20.9 20.9 0.00 0.00 0.00 85
20260506221010 11 211 25.7 29.0 0.00 0.00 0.00 83
20260506220511 11 203 17.7 17.7 0.00 0.00 0.00 84
20260506220011 11 204 25.7 29.0 0.00 0.00 0.00 84
20260506215510 11 204 32.2 32.2 0.00 0.00 0.00 85
20260506215010 11 203 29.0 29.0 0.00 0.00 0.00 85
20260506214510 11 207 25.7 29.0 0.00 0.00 0.00 86
20260506214011 10 230 20.9 29.0 0.00 0.00 0.00 85
20260506213510 10 229 25.7 29.0 0.00 0.00 0.00 84
20260506213011 11 251 25.7 29.0 0.00 0.00 0.00 84
20260506212510 11 225 20.9 29.0 0.00 0.00 0.00 84
20260506212020 11 233 29.0 32.2 0.00 0.00 0.00 83
20260506211511 11 233 29.0 32.2 0.00 0.00 0.00 82
20260506211010 11 218 25.7 29.0 0.00 0.00 0.00 81
20260506210510 12 219 25.7 25.7 0.00 0.00 0.00 78
20260506210010 12 213 14.5 14.5 0.00 0.00 0.00 75
20260506205510 12 201 6.4 11.3 0.00 0.00 0.00 74
20260506204511 12 138 3.2 3.2 0.00 0.00 0.00 74
20260506203510 12 138 0.0 3.2 0.00 0.00 0.00 73
20260506203011 12 117 6.4 6.4 0.00 0.00 0.00 73
20260506202503 12 117 6.4 6.4 0.00 0.00 0.00 74
20260506202012 12 94 6.4 6.4 0.00 0.00 0.00 74
20260506201517 12 112 6.4 11.3 0.00 0.00 0.00 75
20260506201010 12 95 6.4 11.3 0.00 0.00 0.00 75
20260506200511 12 104 11.3 11.3 0.00 0.00 0.00 74
20260506200011 12 85 14.5 14.5 0.00 0.00 0.00 74
20260506195509 12 101 11.3 11.3 0.00 0.00 0.00 74
20260506195018 12 110 11.3 11.3 0.00 0.00 0.00 73
20260506194510 12 118 14.5 14.5 0.00 0.00 0.00 73
20260506194011 12 123 14.5 14.5 0.00 0.00 0.00 72
20260506193511 12 129 17.7 20.9 0.00 0.00 0.00 71
20260506193011 12 128 17.7 17.7 0.00 0.00 0.00 68
20260506192510 13 135 17.7 17.7 0.00 0.00 0.00 63
20260506192011 13 122 11.3 11.3 0.00 0.00 0.00 61
20260506191510 15 72 11.3 11.3 0.00 0.00 0.00 60
20260506191010 15 44 6.4 11.3 0.00 0.00 0.00 61
20260506190510 15 27 11.3 14.5 0.00 0.00 0.00 62
20260506190011 13 22 14.5 14.5 0.00 0.00 0.00 65
20260506185515 13 26 11.3 11.3 0.00 0.00 0.00 65
20260506185011 13 1 11.3 11.3 0.00 0.00 0.00 65
20260506184510 13 1 14.5 14.5 0.00 0.00 0.00 64
20260506184011 13 7 17.7 17.7 0.00 0.00 0.00 65
20260506183510 13 25 17.7 20.9 0.00 0.00 0.00 65
20260506183011 13 63 11.3 11.3 0.00 0.00 0.00 66
20260506182510 13 190 6.4 6.4 0.00 0.00 0.00 66
20260506182012 13 197 20.9 25.7 0.00 0.00 0.00 67
20260506181510 12 189 25.7 32.2 0.00 0.00 0.00 66
20260506181009 15 207 17.7 25.7 0.00 0.00 0.00 62
20260506180510 15 255 14.5 17.7 0.00 0.00 0.00 62
20260506180010 15 277 11.3 14.5 0.00 0.00 0.00 62
20260506175511 15 302 14.5 14.5 0.00 0.00 0.00 62
20260506175011 15 290 17.7 20.9 0.00 0.00 0.00 62
20260506174517 15 296 14.5 14.5 0.00 0.00 0.00 61
20260506174010 15 291 14.5 17.7 0.00 0.00 0.00 60
20260506173510 16 297 11.3 14.5 0.00 0.00 0.00 57
20260506173012 16 299 11.3 11.3 0.00 0.00 0.00 57
20260506171012 16 317 6.4 6.4 0.00 0.00 0.00 56
20260506165011 16 317 3.2 3.2 0.00 0.00 0.00 56
20260506164510 16 317 3.2 3.2 0.00 0.00 0.00 55
20260506163510 16 317 0.0 0.0 0.00 0.00 0.00 55
20260506162509 16 317 0.0 3.2 0.00 0.00 0.00 55
20260506162017 17 317 0.0 3.2 0.00 0.00 0.00 54
20260506161511 17 317 0.0 0.0 0.00 0.00 0.00 54
20260506161009 17 317 0.0 3.2 0.00 0.00 0.00 54
20260506160510 17 317 3.2 3.2 0.00 0.00 0.00 53
20260506160011 17 317 0.0 3.2 0.00 0.00 0.00 53
20260506155511 17 317 3.2 3.2 0.00 0.00 0.00 53
20260506154510 17 317 3.2 3.2 0.00 0.00 0.00 52
20260506153518 17 296 0.0 3.2 0.00 0.00 0.00 52
20260506153010 18 296 0.0 3.2 0.00 0.00 0.00 51
20260506152510 18 298 0.0 0.0 0.00 0.00 0.00 52
20260506152011 17 298 3.2 3.2 0.00 0.00 0.00 52
20260506151511 17 298 3.2 6.4 0.00 0.00 0.00 52
20260506151010 18 305 3.2 3.2 0.00 0.00 0.00 51
20260506150511 18 277 0.0 3.2 0.00 0.00 0.00 51
20260506150010 18 271 3.2 3.2 0.00 0.00 0.00 50
20260506145511 18 184 3.2 3.2 0.00 0.00 0.00 50
20260506145010 18 214 3.2 3.2 0.00 0.00 0.00 49
20260506144511 18 187 0.0 3.2 0.00 0.00 0.00 49
20260506144018 21 167 3.2 6.4 0.00 0.00 0.00 49
20260506143511 21 12 3.2 14.5 0.00 0.00 0.00 50
20260506143011 20 180 0.0 0.0 0.00 0.00 0.00 51
20260506142511 20 19 0.0 3.2 0.00 0.00 0.00 53
20260506142012 17 358 3.2 6.4 0.00 0.00 0.00 53
20260506141510 17 316 0.0 3.2 0.00 0.00 0.00 53
20260506141009 17 296 3.2 3.2 0.00 0.00 0.00 53
20260506140511 17 241 0.0 3.2 0.00 0.00 0.00 53
20260506140011 17 144 0.0 6.4 0.00 0.00 0.00 53
20260506135511 17 124 3.2 6.4 0.00 0.00 0.00 52
20260506135011 17 131 3.2 3.2 0.00 0.00 0.00 54
20260506133511 17 128 6.4 6.4 0.00 0.00 0.00 53
20260506133010 17 131 6.4 6.4 0.00 0.00 0.00 53
20260506132510 18 134 0.0 6.4 0.00 0.00 0.00 53
20260506132012 18 300 0.0 3.2 0.00 0.00 0.00 54
20260506131510 18 148 3.2 6.4 0.00 0.00 0.00 52
20260506131010 20 225 6.4 6.4 0.00 0.00 0.00 55
20260506130517 18 203 6.4 11.3 0.00 0.00 0.00 56
20260506130011 17 255 3.2 6.4 0.00 0.00 0.00 57
20260506125511 17 270 11.3 14.5 0.00 0.00 0.00 58
20260506125010 17 272 11.3 17.7 0.00 0.00 0.00 58
20260506124511 17 252 17.7 20.9 0.00 0.00 0.00 58
20260506124011 16 272 14.5 17.7 0.00 0.00 0.00 59
20260506123511 17 290 14.5 20.9 0.00 0.00 0.00 60
20260506123010 17 279 25.7 29.0 0.00 0.00 0.00 59
20260506122510 17 305 6.4 11.3 0.00 0.00 0.00 61
20260506122012 16 287 20.9 25.7 0.00 0.00 0.00 59
20260506121510 17 274 17.7 20.9 0.00 0.00 0.00 60
20260506121010 17 285 11.3 14.5 0.00 0.00 0.00 60
20260506120511 16 238 14.5 17.7 0.00 0.00 0.00 61
20260506120010 16 267 17.7 20.9 0.00 0.00 0.00 60
20260506115510 16 273 20.9 25.7 0.00 0.00 0.00 60
20260506115011 16 280 17.7 17.7 0.00 0.00 0.00 61
20260506114510 16 264 17.7 20.9 0.00 0.00 0.00 61
20260506114009 16 257 17.7 20.9 0.00 0.00 0.00 61
20260506113510 16 237 17.7 20.9 0.00 0.00 0.00 61
20260506113011 16 265 11.3 14.5 0.00 0.00 0.00 62
20260506112510 15 259 25.7 32.2 0.00 0.00 0.00 61
20260506112013 16 249 17.7 20.9 0.00 0.00 0.00 62
20260506111511 16 242 20.9 25.7 0.00 0.00 0.00 62
20260506111011 16 270 32.2 35.4 0.00 0.00 0.00 62
20260506110510 15 269 25.7 32.2 0.00 0.00 0.00 62
20260506110010 15 237 25.7 29.0 0.00 0.00 0.00 63
20260506105511 15 241 20.9 25.7 0.00 0.00 0.00 63
20260506105011 16 230 17.7 32.2 0.00 0.00 0.00 63
20260506104512 15 249 25.7 29.0 0.00 0.00 0.00 63
20260506104010 15 233 20.9 25.7 0.00 0.00 0.00 64
20260506103510 15 236 25.7 32.2 0.00 0.00 0.00 64
20260506103011 15 239 29.0 32.2 0.00 0.00 0.00 65
20260506102510 15 247 29.0 32.2 0.00 0.00 0.00 65
20260506102010 15 239 20.9 25.7 0.00 0.00 0.00 65
20260506101510 15 243 32.2 32.2 0.00 0.00 0.00 65
20260506101010 13 264 29.0 35.4 0.00 0.00 0.00 65
20260506100510 15 256 29.0 32.2 0.00 0.00 0.00 65
20260506100010 15 240 29.0 29.0 0.00 0.00 0.00 65
20260506095511 15 248 25.7 32.2 0.00 0.00 0.00 66
20260506095011 15 263 29.0 32.2 0.00 0.00 0.00 65
20260506094511 15 233 25.7 32.2 0.00 0.00 0.00 64
20260506094011 15 241 32.2 40.2 0.00 0.00 0.00 64
20260506093511 15 226 29.0 35.4 0.00 0.00 0.00 65
20260506093011 15 242 32.2 40.2 0.00 0.00 0.00 66
20260506092515 13 266 29.0 35.4 0.00 0.00 0.00 66
20260506092014 15 238 32.2 43.5 0.00 0.00 0.00 66
20260506091510 13 252 25.7 35.4 0.00 0.00 0.00 67
20260506091010 13 256 32.2 40.2 0.00 0.00 0.00 67
20260506090511 13 253 20.9 32.2 0.00 0.00 0.00 68